Member area
Imprimable
Challenges > Delhalle - Chatelet, 20/05/2018, BEL - La Châtelettaine
List of reports > Delhalle - 14km - Result
Search: Page: [1]
98 Entries
 
Complains are not accepted anymore. Results are final.
PlaceNrNameAgeNATLeagueTeamRealTimeTkmMoy.ScrPtsCity
1.4VANDERBECK YVES50BELRIWARONVAU53:4253:443:50 15.69131040MALONNE
2.2542VANDEWATTIJNE MARNIX51BELACG55:4955:523:59 15.1020997
3.342LOMBART FRÉDÉRIC51BELGAG56:3356:354:02 14.9021984SAUVENIÈRE
4.787RICHARD PIERRE54BELESCALPADE58:2858:314:10 14.4129945LIMELETTE
5.412CULOT JEAN-MARC54BEL59:2759:304:14 14.1735924LA HESTRE
6.2576HARDENNE ANDRÉ53BELFLEU59:5159:544:16 14.0837916LA HESTRE
7.2563CADO PAUL58BELXYD THE1:00:551:00:594:21 13.8340896LIGNY
8.2552BERGER THIERRY50BELUACUAC1:01:451:01:484:24 13.6546878
9.275FILÉE ERIC58BELUAC1:01:531:01:554:25 13.6247876CHATELINEAU
10.278HANOT SERGE55BELRONVAU1:01:551:01:594:25 13.6149873LIERNU
11.294HASSOUTE EL MOUSTAFA52BELCSFMYSTERE1:02:021:02:144:26 13.5553869FOREST
12.2185PÉRISSE FRANÇOIS50BELFLEU1:03:001:03:044:30 13.3760848COUILLET
13.225JOUAN BERNARD53BEL1:03:121:03:404:32 13.2563843THYNES
14.425DE GRAVE OLIVIER53BELCSFMYSTERE1:03:441:03:504:33 13.2165833UCCLE
15.983CULLOP PAUL57BELENJAMBEE1:03:481:03:524:33 13.2166831BRUXELLES
16.2519BAERT ERIC55BEL1:04:141:04:174:35 13.1275818
17.2615TILLET ALAIN51BELJC VIMO1:04:441:04:534:37 13.0081806
18.2494DI CATALDO MICHEL59BEL1:06:151:06:314:44 12.6899770
19.2533SANTOS DOROTEO56BELOXY 2001:06:381:06:514:46 12.62104761
20.693CHAUVIER JEAN-PIERRE58BEL1:06:581:07:064:47 12.57106754GENVAL
21.839POUCET BENOIT53BELJACO1:07:071:07:204:48 12.53108750SELOIGNES
22.711FLORE CARLO55ITABOUFFIOLS1:07:291:07:464:50 12.45109744CHATELET
23.658DECAMPS ERIC51BELESM1:07:471:07:514:50 12.43110739GOZÉE
24.675VAUDOISEY PASCAL56FRARCBMYSTERE1:07:591:08:004:51 12.40116732UCCLE
25.58HENRY ANDRE58BELRCB1:08:021:08:104:51 12.37118730LA HULPE
26.558D'ANGELO AMERINO56ITAZATAC CHARLEROI1:08:121:08:204:52 12.34121725FARCIENNES
27.337DAMSTEN THIERRY54FIN1:08:161:08:274:53 12.32122724ROSIERES
28.685LETELLIER JEAN-LUC53BELMYSTERE1:08:541:09:004:55 12.22126711LIMELETTE
29.77MEZIANI MOHAND51BELCSFMYSTERE1:08:471:09:034:55 12.21128712SAINT-GILLES
30.364WOUTERS LUC52BELJOKA1:09:021:09:194:56 12.17130706WESPELAAR
31.431MARTIN ERIC55BEL1:09:011:09:364:58 12.12133705WANDRE LIEGE
32.608ROSSI STEPHANE52BELSCBUTG1:09:361:09:474:58 12.09134695ROBERTVILLE
33.128BAURIN HERVE53BEL1:09:561:10:075:00 12.03139687AGIMONT
34.724MARCHAND OLIVIER53BELBOUFFIOLS1:10:491:10:555:03 11.89148668COUILLET
35.2441DECOUX OLIVIER53BELJC HSH1:11:321:11:425:07 11.76153655
36.71DE HERTOG DANIEL59BELGRIMAFRIT 71:11:241:11:425:07 11.76154656GRIMBERGEN
37.663MASSART JEAN-FREDERIC55BELGAG1:11:491:11:565:08 11.72158647GEMBLOUX
38.2582VANDEPOELE DAMIEN54BELGAG1:11:471:11:575:08 11.72159647
39.738WILLEMS LUC57BEL1:11:521:12:085:08 11.69160645SAINT-MARTIN
40.2567HANSET BENOIT53BELFLEUFLEU1:12:031:12:095:08 11.69161642CHATELET
41.626LAMBERT CARL55BELGAG1:12:101:12:195:09 11.66163638GRAND-MANIL
42.540LECLERCQ BRUNO52BELCSFMYSTERE1:12:491:13:025:12 11.55167626FOREST
43.2492VANEUKEM JEAN-LUC57BEL1:12:501:13:115:13 11.52168626
44.2119D'ADDABBO ORONZO59BEL1:12:581:13:255:14 11.49174619LA LOUVIER
45.2515CONSEQUENCE BERTRAND52BEL1:14:091:14:215:18 11.34189593MONS
46.212GALAIS JEAN-MICHEL52BEL1:14:121:14:335:19 11.31193589BRUXELLES
47.2140SPITALERI MARIO59ITAOTS RUNNERS1:14:521:15:045:21 11.23202574LA HESTRE
48.2147PATERNOSTRE JEAN-JACQUES56BEL1:14:591:15:105:21 11.22204571JUMET
49.2157MARINELLI GAETANO58ITABOUFFIOLS1:15:161:15:245:22 11.18207565CHATELET
50.2504ANTONACCI DANIEL50BELF1:15:211:15:425:24 11.14209562
51.2607PROTO SILVESTRE54ITA1:15:341:15:435:24 11.14210559
52.2481GOOSSENS JEAN LEON55BELFOR MY1:15:271:15:485:24 11.13211560
53.2505SCARNIERE DENIS57BELJC HSH1:15:531:16:005:25 11.10218549
54.32JACQUEMIN PATRICK53BEL1:15:541:16:125:26 11.07219548MOXHE
55.992LETHÉ VINCENT58BELRONVAU1:15:561:16:195:26 11.05220547TOURINNES-SAINT-LAMBERT
56.404TILBURGS FRANK51BELAVN1:16:051:16:335:27 11.02225541MEER
57.51WARIN DIDIER54BEL1:16:121:16:355:27 11.01227538WOLUWE-SAINT-PIERRE
58.43SEGHIN VINCENT53BELESMESM1:16:181:16:465:28 10.99228536THUIN
59.535ROMBAUX MARC58BELCSDY1:16:421:16:515:29 10.97231529LOUVAIN-LA-NEUVE
60.2200MICHEL SERGE54BELHABAY RUNNERS CLUB1:16:161:16:555:29 10.96232533LEGLISE
61.177HIGUET PIERRE54BELJCCS1:16:431:17:105:30 10.93234526BEAURAING
62.812BATISTIC PATRICK54BELRONVAU1:17:011:17:235:31 10.90236521NALINNES
63.7542LETA FILIPPO53BELBOUFFIOLS1:17:301:17:395:32 10.86237514CHATELET
64.2545LARMUSEAU JEAN MICHEL50BELJCPMFJCPMF1:18:091:18:385:36 10.73251495
65.623PISCART PIERRE58BELMOHAFORESTIERE1:19:001:19:275:40 10.61259479HAVRÉ
66.2543GARCIA JOSÉ LUIS57BEL1:19:361:19:505:41 10.56270463
67.2177MARCHAL PATRICK57BELGAG1:19:411:19:585:42 10.55273460GEMBLOUX
68.91GEERAERTS JOS58BELMYSTERE1:20:441:20:595:46 10.41279443BUIZINGEN
69.406DELATTE OLIVIER54BELCSFMYSTERE1:20:501:21:045:47 10.40282439ANDERLECHT
70.841SALVATO DOMENICO55BELCSFMYSTERE1:21:411:21:555:50 10.30291422BRUXELLES
71.846POELMANS DOMINIQUE57BELRCNAMUR1:22:381:22:565:55 10.17296407EVREHAILLES
72.2594DIELEN FABIEN56FRARC LENS1:22:431:23:155:56 10.13300403
73.561HAINAUT CHARLES59BEL1:23:041:23:165:56 10.13301399GERPINNES
74.2593LODEWIJKS GUY51BEL1:22:591:23:205:56 10.12302399EDEGEM
75.318STICKER JOHAN59BELESMOXYGENE1:22:521:23:305:57 10.10304399BIERCEE
76.2595GOFFART HENRI58BELJC THIM1:23:281:24:035:59 10.03310387
77.139BILLAT ETIENNE58BEL1:23:381:24:035:59 10.03311385BOUGE
78.636SANTOCONO GIROLAMO57ITAACLO1:24:191:24:536:03 9.93319371MORLANWELZ
79.80ADANS ALAIN56BELMYSTERE1:24:541:25:096:04 9.90323361COGNELÉE
80.828TORRES PASQUALE54BELBOUFFIOLS1:25:211:25:386:06 9.85327353PRESLES
81.2479BAUDOUX BENOIT53BEL1:27:291:27:506:15 9.60349312
82.2538RODRIGUEZ MERINO ENRIQUE56ESPBOUFFIOBOUFFIOLS1:27:391:28:136:17 9.56352308PIRONCHAMPS
83.2169ROUART JEAN LOUIS57BELUCA1:28:251:28:506:20 9.49357296WANGENIES
84.2433MACHIELS CHRISTIAN57BEL1:28:381:29:086:21 9.46362290
85.2123CULOT PATRICK51BELRUNNING CLUB METTET1:29:121:29:446:24 9.40370278BOIS-DE-VILLERS
86.192GEUSKENS JEAN-MARC54BEL1:30:101:30:376:27 9.31376262BRUXELLES
87.2129SAUBLAINS ALAIN59BELCSFMYSTERE1:30:281:30:456:28 9.29377259BRUXELLES
88.2554BERTIEAUX PASCAL53BELESMESM1:31:241:31:306:31 9.22385242ROUX
89.2590VADALA GIUSEPPE57BELUAC1:32:301:32:536:37 9.08396223BOUFFIOULX
90.590BALSAT PHILIPPE55BELBJB1:32:201:32:576:37 9.07398223LA LOUVIERE
91.429DENEFFE PHILIPPE57BELJC HOUYET1:32:421:33:086:38 9.05399219HOUYET
92.203ALBERT MICHEL57BELUSBWUSBW RT1:32:481:33:186:39 9.04400216NAMECHE
93.330GEUSKENS NICOLAS50BEL1:39:001:39:267:05 8.48428132WAVRE
94.2544DAUTEL CLAUDE50BEL1:38:561:39:277:05 8.48429132
95.2462TAVIER PASCAL56BELJC THIM1:41:561:42:167:17 8.2543598
96.8ANTOINE ALAIN57BELRCNAMUR1:48:181:48:327:44 7.7745027TEMPLOUX
97.2596ALEXANDRE PASCAL58BELJC THIM1:50:531:51:267:56 7.574515
98.656MABILLE JOEL51BELJC HSH2:02:002:02:248:43 6.894552HAM SUR HEURE
DNF: did not finish; DSQ: disqualified; Speed in km/h
Page: [1]